| time (UTC) | temp F | wind direction | speed knots | gust knots | rain 1hr in | rain 24hr in | rain mn in | humidity % | barometer mb |
| 20260903143114 | 66 | 270 | 0.0 | 0.0 | 0.00 | 0.00 | 0.00 | 29 | 1016.7 |
| 20260903142114 | 64 | 270 | 0.0 | 0.0 | 0.00 | 0.00 | 0.00 | 32 | 1016.7 |
| 20260903141115 | 63 | 260 | 1.7 | 2.6 | 0.00 | 0.00 | 0.00 | 36 | 1016.7 |
| 20260903140129 | 62 | 337 | 0.0 | 0.0 | 0.00 | 0.00 | 0.00 | 40 | 1016.5 |
| 20260903135128 | 61 | 337 | 0.0 | 0.0 | 0.00 | 0.00 | 0.00 | 41 | 1016.6 |
| 20260903134128 | 60 | 337 | 0.0 | 0.0 | 0.00 | 0.00 | 0.00 | 41 | 1016.5 |
| 20260903133115 | 60 | 337 | 0.0 | 0.0 | 0.00 | 0.00 | 0.00 | 42 | 1016.4 |
| 20260903133012 | 60 | 337 | 0.0 | 0.0 | 0.00 | 0.00 | 0.00 | 41 | 1016.3 |
| 20260903132112 | 60 | 337 | 0.0 | 0.0 | 0.00 | 0.00 | 0.00 | 40 | 1016.2 |
| 20260903131116 | 61 | 337 | 0.0 | 0.0 | 0.00 | 0.00 | 0.00 | 35 | 1016.2 |
| 20260903130212 | 62 | 337 | 0.0 | 0.9 | 0.00 | 0.00 | 0.00 | 31 | 1016.0 |
| 20260903130129 | 62 | 337 | 0.9 | 1.7 | 0.00 | 0.00 | 0.00 | 32 | 1016.1 |
| 20260903125229 | 61 | 302 | 3.5 | 4.3 | 0.00 | 0.00 | 0.00 | 35 | 1016.1 |
| 20260903124214 | 61 | 315 | 0.0 | 1.7 | 0.00 | 0.00 | 0.00 | 37 | 1016.0 |
| 20260903122328 | 62 | 292 | 0.0 | 0.0 | 0.00 | 0.00 | 0.00 | 34 | 1016.0 |
| 20260903120313 | 61 | 22 | 0.0 | 0.9 | 0.00 | 0.00 | 0.00 | 36 | 1016.0 |
| 20260903114330 | 62 | 337 | 0.0 | 0.0 | 0.00 | 0.00 | 0.00 | 35 | 1016.0 |
| 20260903113414 | 63 | 337 | 0.0 | 0.0 | 0.00 | 0.00 | 0.00 | 31 | 1015.9 |
| 20260903112414 | 63 | 337 | 0.0 | 0.9 | 0.00 | 0.00 | 0.00 | 30 | 1015.9 |
| 20260903111512 | 63 | 22 | 0.0 | 0.0 | 0.00 | 0.00 | 0.00 | 29 | 1015.8 |
| 20260903105515 | 64 | 36 | 0.9 | 3.5 | 0.00 | 0.00 | 0.00 | 29 | 1015.8 |
| 20260903104531 | 64 | 321 | 1.7 | 2.6 | 0.00 | 0.00 | 0.00 | 29 | 1015.7 |
| 20260903103613 | 65 | 360 | 0.0 | 0.0 | 0.00 | 0.00 | 0.00 | 30 | 1015.7 |
| 20260903102712 | 66 | 22 | 3.5 | 4.3 | 0.00 | 0.00 | 0.00 | 29 | 1015.6 |
| 20260903102613 | 66 | 346 | 1.7 | 3.5 | 0.00 | 0.00 | 0.00 | 29 | 1015.7 |
| 20260903101711 | 66 | 295 | 2.6 | 3.5 | 0.00 | 0.00 | 0.00 | 26 | 1015.7 |
| 20260903100713 | 66 | 337 | 1.7 | 2.6 | 0.00 | 0.00 | 0.00 | 29 | 1015.8 |
| 20260903095730 | 66 | 360 | 0.9 | 1.7 | 0.00 | 0.00 | 0.00 | 28 | 1015.7 |
| 20260903094814 | 66 | 337 | 0.9 | 2.6 | 0.00 | 0.00 | 0.00 | 28 | 1015.6 |
| 20260903093814 | 67 | 225 | 0.0 | 0.0 | 0.00 | 0.00 | 0.00 | 28 | 1015.6 |
| 20260903092831 | 69 | 225 | 0.0 | 0.0 | 0.00 | 0.00 | 0.00 | 25 | 1015.5 |
| 20260903091915 | 70 | 180 | 0.0 | 0.0 | 0.00 | 0.00 | 0.00 | 21 | 1015.4 |
| 20260903091814 | 71 | 180 | 0.0 | 0.0 | 0.00 | 0.00 | 0.00 | 21 | 1015.5 |
| 20260903090913 | 72 | 157 | 0.0 | 0.0 | 0.00 | 0.00 | 0.00 | 18 | 1015.4 |
| 20260903085914 | 73 | 150 | 0.9 | 2.6 | 0.00 | 0.00 | 0.00 | 17 | 1015.3 |
| 20260903084914 | 74 | 157 | 0.0 | 0.9 | 0.00 | 0.00 | 0.00 | 15 | 1015.3 |
| 20260903084012 | 75 | 112 | 0.0 | 0.9 | 0.00 | 0.00 | 0.00 | 15 | 1015.5 |
| 20260903083929 | 75 | 112 | 0.0 | 1.7 | 0.00 | 0.00 | 0.00 | 14 | 1015.5 |
| 20260903081015 | 74 | 85 | 2.6 | 3.5 | 0.00 | 0.00 | 0.00 | 17 | 1015.4 |
| 20260903080013 | 73 | 90 | 2.6 | 2.6 | 0.00 | 0.00 | 0.00 | 19 | 1015.3 |
| 20260903075030 | 73 | 225 | 0.0 | 0.0 | 0.00 | 0.00 | 0.00 | 18 | 1015.4 |
| 20260903074114 | 75 | 74 | 3.5 | 5.2 | 0.00 | 0.00 | 0.00 | 16 | 1015.3 |
| 20260903073212 | 75 | 238 | 2.6 | 3.5 | 0.00 | 0.00 | 0.00 | 17 | 1015.3 |
| 20260903072213 | 75 | 90 | 1.7 | 1.7 | 0.00 | 0.00 | 0.00 | 14 | 1015.2 |
| 20260903071230 | 76 | 80 | 1.7 | 2.6 | 0.00 | 0.00 | 0.00 | 16 | 1015.2 |
| 20260903070314 | 76 | 90 | 1.7 | 2.6 | 0.00 | 0.00 | 0.00 | 14 | 1015.2 |
| 20260903065329 | 76 | 68 | 3.5 | 4.3 | 0.00 | 0.00 | 0.00 | 15 | 1015.0 |
| 20260903064413 | 75 | 61 | 1.7 | 4.3 | 0.00 | 0.00 | 0.00 | 16 | 1015.1 |
| 20260903063412 | 76 | 121 | 0.0 | 1.7 | 0.00 | 0.00 | 0.00 | 15 | 1014.9 |
| 20260903062414 | 76 | 67 | 1.7 | 3.5 | 0.00 | 0.00 | 0.00 | 16 | 1015.0 |
| 20260903060427 | 77 | 47 | 2.6 | 3.5 | 0.00 | 0.00 | 0.00 | 15 | 1014.7 |
| 20260903055413 | 77 | 67 | 1.7 | 2.6 | 0.00 | 0.00 | 0.00 | 15 | 1014.9 |
| 20260903055314 | 77 | 67 | 1.7 | 2.6 | 0.00 | 0.00 | 0.00 | 15 | 1014.9 |
| 20260903054333 | 76 | 90 | 1.7 | 2.6 | 0.00 | 0.00 | 0.00 | 15 | 1014.8 |
| 20260903053430 | 74 | 142 | 0.9 | 4.3 | 0.00 | 0.00 | 0.00 | 18 | 1014.8 |
| 20260903052530 | 74 | 270 | 0.0 | 0.0 | 0.00 | 0.00 | 0.00 | 18 | 1014.7 |
| 20260903051515 | 75 | 273 | 0.9 | 2.6 | 0.00 | 0.00 | 0.00 | 18 | 1014.7 |
| 20260903050515 | 76 | 63 | 1.7 | 2.6 | 0.00 | 0.00 | 0.00 | 17 | 1014.7 |
| 20260903045613 | 76 | 27 | 0.0 | 2.6 | 0.00 | 0.00 | 0.00 | 17 | 1014.6 |
| 20260903044615 | 77 | 247 | 0.0 | 0.0 | 0.00 | 0.00 | 0.00 | 16 | 1014.6 |
| 20260903043629 | 79 | 234 | 0.0 | 0.0 | 0.00 | 0.00 | 0.00 | 13 | 1014.5 |
| 20260903042716 | 79 | 292 | 2.6 | 3.5 | 0.00 | 0.00 | 0.00 | 14 | 1014.6 |
| 20260903041715 | 80 | 107 | 0.0 | 0.0 | 0.00 | 0.00 | 0.00 | 12 | 1014.4 |
| 20260903041631 | 80 | 112 | 0.0 | 0.0 | 0.00 | 0.00 | 0.00 | 13 | 1014.3 |
| 20260903035716 | 79 | 292 | 0.0 | 0.0 | 0.00 | 0.00 | 0.00 | 15 | 1014.1 |
| 20260903034730 | 80 | 292 | 0.0 | 0.9 | 0.00 | 0.00 | 0.00 | 13 | 1013.9 |
| 20260903032913 | 82 | 292 | 2.6 | 3.5 | 0.00 | 0.00 | 0.00 | 11 | 1013.9 |
| 20260903031914 | 83 | 202 | 0.0 | 1.7 | 0.00 | 0.00 | 0.00 | 10 | 1013.8 |
| 20260903025929 | 84 | 246 | 2.6 | 3.5 | 0.00 | 0.00 | 0.00 | 8 | 1013.7 |
| 20260903023913 | 85 | 240 | 3.5 | 4.3 | 0.00 | 0.00 | 0.00 | 9 | 1013.6 |
| 20260903022916 | 86 | 224 | 4.3 | 6.1 | 0.00 | 0.00 | 0.00 | 8 | 1013.5 |
| 20260903021929 | 87 | 232 | 5.2 | 7.0 | 0.00 | 0.00 | 0.00 | 8 | 1013.4 |
| 20260903021013 | 87 | 239 | 5.2 | 9.6 | 0.00 | 0.00 | 0.00 | 8 | 1013.3 |
| 20260903015016 | 88 | 245 | 3.5 | 6.1 | 0.00 | 0.00 | 0.00 | 7 | 1013.1 |
| 20260903013114 | 90 | 240 | 4.3 | 11.3 | 0.00 | 0.00 | 0.00 | 7 | 1013.3 |
| 20260903012017 | 90 | 224 | 9.6 | 13.9 | 0.00 | 0.00 | 0.00 | 7 | 1013.3 |
| 20260903011114 | 90 | 241 | 9.6 | 15.6 | 0.00 | 0.00 | 0.00 | 7 | 1013.2 |
| 20260903010213 | 91 | 224 | 8.7 | 14.8 | 0.00 | 0.00 | 0.00 | 6 | 1013.2 |
| 20260903005215 | 91 | 239 | 5.2 | 7.0 | 0.00 | 0.00 | 0.00 | 7 | 1013.1 |
| 20260903004216 | 91 | 214 | 7.8 | 12.2 | 0.00 | 0.00 | 0.00 | 7 | 1013.2 |
| 20260903002228 | 92 | 241 | 5.2 | 8.7 | 0.00 | 0.00 | 0.00 | 8 | 1013.1 |
| 20260903001316 | 92 | 240 | 9.6 | 15.6 | 0.00 | 0.00 | 0.00 | 6 | 1013.1 |
| 20260903000317 | 92 | 227 | 13.0 | 20.0 | 0.00 | 0.00 | 0.00 | 7 | 1013.3 |
| 20260902235413 | 92 | 215 | 5.2 | 12.2 | 0.00 | 0.00 | 0.00 | 7 | 1013.3 |
| 20260902234431 | 91 | 237 | 7.8 | 12.2 | 0.00 | 0.00 | 0.00 | 8 | 1013.3 |
| 20260902233414 | 92 | 261 | 7.0 | 14.8 | 0.00 | 0.00 | 0.00 | 7 | 1013.4 |
| 20260902231513 | 92 | 238 | 8.7 | 11.3 | 0.00 | 0.00 | 0.00 | 7 | 1013.5 |
| 20260902230530 | 92 | 251 | 6.1 | 11.3 | 0.00 | 0.00 | 0.00 | 6 | 1013.8 |
| 20260902225617 | 92 | 233 | 9.6 | 17.4 | 0.00 | 0.00 | 0.00 | 7 | 1013.7 |
| 20260902224629 | 93 | 226 | 7.0 | 9.6 | 0.00 | 0.00 | 0.00 | 6 | 1013.7 |
| 20260902222731 | 92 | 217 | 10.4 | 17.4 | 0.00 | 0.00 | 0.00 | 7 | 1014.0 |
| 20260902221729 | 92 | 233 | 5.2 | 7.8 | 0.00 | 0.00 | 0.00 | 6 | 1014.1 |
| 20260902220729 | 93 | 215 | 10.4 | 15.6 | 0.00 | 0.00 | 0.00 | 7 | 1014.4 |
| 20260902215815 | 92 | 237 | 7.8 | 11.3 | 0.00 | 0.00 | 0.00 | 9 | 1014.4 |
| 20260902214833 | 91 | 216 | 6.1 | 9.6 | 0.00 | 0.00 | 0.00 | 9 | 1014.4 |
| 20260902213829 | 91 | 226 | 9.6 | 15.6 | 0.00 | 0.00 | 0.00 | 9 | 1014.7 |
| 20260902212814 | 91 | 235 | 10.4 | 17.4 | 0.00 | 0.00 | 0.00 | 11 | 1014.9 |
| 20260902210913 | 92 | 175 | 7.8 | 12.2 | 0.00 | 0.00 | 0.00 | 11 | 1014.9 |
| 20260902203914 | 92 | 218 | 10.4 | 15.6 | 0.00 | 0.00 | 0.00 | 11 | 1015.6 |
| 20260902203816 | 92 | 220 | 7.8 | 12.2 | 0.00 | 0.00 | 0.00 | 10 | 1015.4 |
| 20260902202912 | 90 | 217 | 7.0 | 14.8 | 0.00 | 0.00 | 0.00 | 12 | 1015.4 |
| 20260902201915 | 91 | 243 | 7.8 | 13.9 | 0.00 | 0.00 | 0.00 | 11 | 1015.5 |
| 20260902200928 | 90 | 250 | 5.2 | 10.4 | 0.00 | 0.00 | 0.00 | 11 | 1015.7 |
| 20260902195913 | 90 | 232 | 7.0 | 9.6 | 0.00 | 0.00 | 0.00 | 13 | 1015.9 |
| 20260902195814 | 90 | 198 | 6.1 | 11.3 | 0.00 | 0.00 | 0.00 | 13 | 1015.9 |
| 20260902193828 | 90 | 229 | 8.7 | 13.0 | 0.00 | 0.00 | 0.00 | 14 | 1016.4 |
| 20260902192830 | 90 | 214 | 7.8 | 12.2 | 0.00 | 0.00 | 0.00 | 14 | 1016.6 |
| 20260902191915 | 89 | 223 | 6.1 | 9.6 | 0.00 | 0.00 | 0.00 | 14 | 1016.4 |
| 20260902191012 | 89 | 187 | 7.0 | 12.2 | 0.00 | 0.00 | 0.00 | 15 | 1016.6 |
| 20260902190029 | 89 | 219 | 7.8 | 13.0 | 0.00 | 0.00 | 0.00 | 14 | 1016.8 |
| 20260902185012 | 88 | 302 | 2.6 | 3.5 | 0.00 | 0.00 | 0.00 | 16 | 1016.7 |
| 20260902184013 | 88 | 242 | 5.2 | 7.8 | 0.00 | 0.00 | 0.00 | 17 | 1017.0 |
| 20260902183012 | 87 | 227 | 5.2 | 7.0 | 0.00 | 0.00 | 0.00 | 17 | 1017.1 |
| 20260902182011 | 88 | 252 | 4.3 | 7.0 | 0.00 | 0.00 | 0.00 | 18 | 1017.3 |
| 20260902181016 | 87 | 242 | 3.5 | 7.0 | 0.00 | 0.00 | 0.00 | 19 | 1017.3 |
| 20260902180930 | 87 | 229 | 6.1 | 9.6 | 0.00 | 0.00 | 0.00 | 19 | 1017.4 |
| 20260902174113 | 87 | 219 | 4.3 | 7.8 | 0.00 | 0.00 | 0.00 | 21 | 1017.6 |
| 20260902174014 | 87 | 222 | 3.5 | 7.8 | 0.00 | 0.00 | 0.00 | 21 | 1017.6 |
| 20260902173030 | 88 | 235 | 3.5 | 6.1 | 0.00 | 0.00 | 0.00 | 22 | 1017.5 |
| 20260902172112 | 88 | 253 | 1.7 | 4.3 | 0.00 | 0.00 | 0.00 | 23 | 1017.7 |
| 20260902171115 | 88 | 337 | 0.0 | 0.9 | 0.00 | 0.00 | 0.00 | 23 | 1017.6 |
| 20260902170129 | 88 | 22 | 0.0 | 0.9 | 0.00 | 0.00 | 0.00 | 24 | 1017.5 |
| 20260902165115 | 88 | 45 | 0.9 | 1.7 | 0.00 | 0.00 | 0.00 | 27 | 1017.4 |
| 20260902164112 | 85 | 80 | 0.0 | 0.0 | 0.00 | 0.00 | 0.00 | 29 | 1017.7 |
| 20260902163129 | 86 | 184 | 2.6 | 3.5 | 0.00 | 0.00 | 0.00 | 30 | 1017.5 |
| 20260902163013 | 86 | 180 | 0.0 | 1.7 | 0.00 | 0.00 | 0.00 | 31 | 1017.5 |
| 20260902162014 | 85 | 202 | 0.0 | 0.9 | 0.00 | 0.00 | 0.00 | 31 | 1017.5 |
| 20260902161013 | 83 | 112 | 0.0 | 0.0 | 0.00 | 0.00 | 0.00 | 33 | 1017.7 |
| 20260902160013 | 82 | 67 | 0.0 | 1.7 | 0.00 | 0.00 | 0.00 | 35 | 1017.6 |
| 20260902155028 | 80 | 270 | 1.7 | 1.7 | 0.00 | 0.00 | 0.00 | 36 | 1017.6 |
| 20260902154113 | 80 | 276 | 0.0 | 0.9 | 0.00 | 0.00 | 0.00 | 38 | 1017.5 |
| 20260902153211 | 81 | 292 | 0.0 | 1.7 | 0.00 | 0.00 | 0.00 | 37 | 1017.7 |
| 20260902152214 | 79 | 247 | 0.0 | 0.0 | 0.00 | 0.00 | 0.00 | 38 | 1017.6 |
| 20260902151213 | 78 | 202 | 0.0 | 0.0 | 0.00 | 0.00 | 0.00 | 41 | 1017.6 |
| 20260902145313 | 75 | 292 | 0.0 | 0.0 | 0.00 | 0.00 | 0.00 | 39 | 1017.6 |
| 20260902144312 | 73 | 247 | 0.0 | 0.9 | 0.00 | 0.00 | 0.00 | 41 | 1017.5 |